RH
30 32 30 28 27 28 27 26 25 21 19 23 26 27 28 31 32 27 26 25 24 28 29 25 21 16 13 13 15 15 16 16 19 30 41 44 49 50 49 52 52 51 49 47 48 45 42 41 40 41 41 41 40 38 36 34 36 37 35 36 38 37 36 37 40 44 43 41 40 36 35 35 37 36 33 36 42 49 55 58 61 63 64 64 65 66
36 35 32 31 31 29 29 27 25 23 22 25 29 30 27 30 33 28 27 28 27 30 29 27 24 18 15 14 15 16 19 19 16 28 41 40 42 45 45 50 53 52 51 51 51 50 48 46 43 41 39 38 37 37 37 35 34 36 36 35 36 36 36 36 40 44 43 41 38 34 35 37 37 36 34 34 39 48 57 63 67 69 68 66 67 69
43 38 34 34 35 33 30 28 26 25 27 30 32 33 29 27 29 29 27 28 30 32 30 29 27 22 18 15 16 17 19 20 16 22 36 37 35 38 41 47 53 54 54 52 51 51 49 45 41 40 37 36 34 35 39 37 34 35 36 35 35 34 34 37 41 43 42 42 38 35 37 39 38 38 37 35 38 48 59 66 70 72 72 70 70 71
48 39 35 35 36 36 33 30 29 30 32 33 33 36 33 26 26 27 26 27 31 33 31 29 28 26 23 18 17 18 19 20 18 18 27 34 34 33 36 41 47 52 52 51 49 49 46 42 39 37 36 36 36 37 40 37 32 32 35 36 36 34 32 36 41 41 40 41 37 36 38 39 40 42 42 42 44 50 58 64 68 74 76 74 74 73
46 39 37 36 36 36 34 30 31 35 38 34 32 34 33 27 26 25 22 26 31 32 31 30 30 28 27 24 19 18 19 19 20 18 20 29 33 33 35 38 40 43 45 47 48 47 45 40 38 36 35 36 35 36 36 32 29 31 35 36 37 36 31 34 40 39 38 40 37 36 38 39 42 45 46 47 50 54 59 63 68 74 77 77 76 75
43 40 39 38 37 35 33 29 31 39 41 36 31 32 32 28 26 24 20 24 34 35 30 31 34 31 28 26 22 19 19 18 18 19 21 24 32 34 35 37 37 37 37 40 42 44 42 39 37 36 36 35 32 31 31 27 27 32 36 36 38 37 33 35 39 37 37 40 37 36 39 40 43 48 49 49 51 57 62 66 69 74 78 80 79 76
41 42 41 41 40 36 34 30 31 38 42 40 34 31 33 31 28 26 21 23 38 40 30 31 38 36 31 27 24 21 20 18 16 19 23 23 26 30 31 31 33 34 36 38 40 41 39 37 36 36 35 30 28 28 27 26 28 33 35 35 37 37 35 35 36 36 39 40 37 37 39 41 45 52 56 55 56 61 66 69 72 76 80 82 81 78
43 43 42 43 41 37 35 33 31 35 40 40 35 32 35 35 31 28 22 22 36 41 33 34 39 38 34 30 27 25 21 18 16 18 23 23 22 24 27 28 30 32 35 38 41 40 38 36 35 33 30 25 24 25 24 25 30 33 33 34 37 38 37 36 36 36 38 38 36 37 39 42 48 56 60 60 61 65 68 71 74 77 80 81 80 78
47 46 44 47 47 40 36 35 33 37 42 38 34 34 35 37 36 33 27 22 29 41 40 38 43 43 38 32 29 28 25 21 18 16 20 21 19 19 22 26 30 31 34 35 37 38 37 35 33 28 23 23 24 23 21 25 30 34 34 36 39 39 38 38 37 35 35 35 35 35 38 43 49 55 57 57 61 65 67 70 74 76 77 79 77 75
52 50 48 50 49 41 36 35 36 42 46 40 38 39 36 37 37 36 35 28 30 46 48 39 43 48 42 34 31 32 30 25 20 16 16 17 17 18 19 23 29 32 34 34 34 34 34 32 29 24 20 22 24 23 23 26 31 34 34 37 40 39 37 38 37 33 32 32 32 32 35 40 45 50 52 53 57 61 64 69 73 75 75 75 73 72
57 54 53 50 45 40 37 38 38 42 46 43 43 43 39 37 37 39 39 32 36 52 50 40 41 47 46 36 32 36 33 26 20 18 16 14 14 16 19 22 27 31 34 35 35 33 32 29 27 24 23 25 27 27 27 28 31 33 33 36 40 39 39 38 36 32 30 30 30 31 33 37 42 46 47 51 55 58 62 68 72 73 73 72 71 70
60 61 57 49 46 44 42 43 39 40 43 44 46 45 44 44 41 43 41 35 43 51 46 40 39 44 46 37 32 35 33 27 22 19 17 15 13 15 17 20 25 30 33 35 36 34 34 32 31 31 30 30 31 31 30 29 30 32 32 35 38 39 39 38 35 32 29 29 30 30 33 38 42 44 46 50 54 57 62 67 70 70 70 69 68 68
61 63 58 50 47 46 48 47 40 40 42 43 46 47 50 53 53 55 52 44 44 42 39 40 40 43 42 34 31 31 30 29 24 18 17 16 14 14 16 18 24 29 32 34 35 35 35 34 34 33 33 33 33 31 30 29 30 31 31 34 38 38 38 36 34 31 29 29 30 31 35 40 42 44 47 52 54 59 64 66 66 65 65 65 65 67
63 62 59 52 49 46 47 48 44 43 43 43 47 50 54 59 64 66 62 54 44 33 32 37 41 45 41 33 31 30 27 27 24 19 18 16 15 15 15 16 21 27 31 32 33 33 33 33 32 30 31 33 33 32 32 31 30 31 32 35 38 38 37 35 33 30 29 29 29 31 36 40 42 45 50 53 56 59 62 63 61 60 61 63 63 65
69 66 60 54 49 47 46 44 41 42 43 44 46 48 53 57 62 66 65 63 54 37 30 37 45 47 41 35 33 31 27 25 23 21 19 19 17 16 15 16 20 25 28 29 30 31 31 31 29 29 30 33 33 34 34 33 32 32 33 35 37 36 34 33 32 30 29 29 29 32 36 40 43 47 52 54 56 57 59 59 59 59 60 61 60 62
73 68 57 52 48 47 49 45 40 42 45 47 46 46 49 51 54 60 62 63 60 50 41 43 48 47 41 35 30 30 28 25 23 22 21 21 19 19 18 18 21 25 27 29 30 30 30 29 28 28 31 34 34 35 35 34 32 32 33 35 35 33 32 32 31 29 29 29 30 33 37 42 45 49 52 54 55 56 57 57 57 59 59 59 59 61
69 63 53 51 47 42 44 45 44 47 50 50 48 49 50 51 52 54 58 60 63 64 52 43 45 46 43 38 32 31 30 27 25 22 21 21 20 21 21 20 23 27 28 29 30 30 31 30 29 30 32 34 35 35 35 34 32 31 34 36 34 32 33 32 30 29 29 30 31 35 40 44 47 50 53 55 55 55 55 56 57 58 57 56 59 62
67 64 54 51 49 42 39 44 44 43 45 48 49 49 52 56 55 53 59 67 73 71 53 38 43 46 43 42 38 33 31 29 27 23 21 22 21 22 21 22 25 27 29 30 30 31 31 30 31 34 35 35 34 34 34 33 32 32 35 36 34 32 32 33 31 28 29 30 32 36 42 46 48 51 53 55 54 53 53 55 57 55 53 55 60 64
68 70 61 52 50 44 37 39 43 38 36 41 44 43 51 63 65 60 60 68 74 69 51 40 43 43 41 41 39 35 33 32 29 25 23 24 24 22 21 24 27 28 30 31 32 33 33 32 33 35 36 36 36 36 36 36 35 34 37 38 34 33 34 35 33 30 30 32 34 38 44 47 49 51 53 54 53 52 52 54 55 52 52 56 62 65
65 68 64 55 51 48 41 38 40 39 34 35 40 43 51 62 69 67 63 63 70 71 62 52 48 45 40 38 37 36 35 33 32 29 26 26 26 23 22 25 28 30 32 33 34 34 33 33 33 32 34 36 38 39 39 40 38 37 40 41 38 36 37 38 36 33 32 33 35 40 44 47 49 51 53 53 53 52 53 54 53 51 53 58 63 64
71 71 66 60 56 53 50 42 37 37 35 34 40 45 50 57 63 64 62 58 60 67 67 60 56 50 41 37 38 37 35 35 35 34 31 29 28 24 23 26 29 31 33 34 35 35 33 33 33 33 36 39 40 41 41 41 39 41 44 44 41 38 37 38 37 35 34 34 37 41 44 46 49 50 52 53 53 53 53 53 51 51 54 58 61 62
84 85 80 74 65 55 50 44 37 35 35 35 37 40 46 55 62 67 68 60 54 58 60 56 55 47 37 40 44 41 40 39 38 39 36 32 30 27 24 26 29 31 33 33 34 34 35 35 35 37 39 41 43 44 43 41 41 45 47 45 41 38 36 37 36 34 34 35 37 41 43 46 49 50 51 52 53 53 53 51 51 52 55 58 60 60
89 93 93 86 75 60 49 44 42 39 36 34 36 39 45 53 60 64 71 69 62 60 58 54 49 39 37 47 49 45 43 41 40 41 36 32 31 27 23 24 29 31 31 33 33 35 36 37 37 38 40 42 44 45 44 44 45 47 48 45 40 36 36 37 35 34 35 36 38 41 43 45 48 50 51 51 52 54 53 52 53 53 55 57 59 59
91 95 95 87 77 68 56 46 40 39 38 34 32 38 44 49 53 56 65 71 71 69 67 63 54 39 40 49 48 44 42 39 41 42 37 32 30 25 22 23 28 32 32 34 35 37 38 38 39 41 42 44 46 48 48 47 49 50 49 45 40 35 36 36 34 34 35 36 37 40 41 44 48 50 50 51 53 54 54 54 54 55 56 57 57 57
91 91 93 87 79 71 64 56 46 39 37 33 31 35 39 43 49 54 61 68 73 72 66 64 55 40 40 48 48 45 41 39 43 43 39 35 29 24 22 24 30 34 35 36 38 39 40 42 43 44 44 46 48 50 49 49 51 51 49 45 39 36 36 35 34 35 36 36 37 38 40 43 47 49 50 52 53 55 55 55 56 57 57 58 57 58
90 92 92 90 85 77 71 65 54 43 35 28 29 35 38 43 48 52 61 71 76 72 62 58 51 40 41 50 52 47 44 43 46 45 41 38 32 26 24 29 34 36 37 39 41 43 46 49 50 48 48 49 50 51 50 50 51 51 50 45 39 36 36 35 34 35 36 36 36 37 40 43 46 48 50 52 53 55 56 55 57 58 59 59 59 58
90 92 92 93 91 81 72 62 52 48 41 31 31 36 39 43 43 47 62 75 76 68 57 51 50 44 45 53 53 49 48 50 51 47 42 40 38 32 29 32 35 36 38 42 45 48 51 54 56 54 53 52 51 51 50 50 49 48 49 45 39 38 37 35 34 35 35 36 36 37 40 43 45 48 52 53 54 57 57 56 58 60 61 61 61 59
84 85 86 91 86 74 67 61 54 52 47 36 33 37 40 41 40 45 60 71 73 70 58 49 51 51 51 54 54 51 54 58 58 54 47 43 43 41 39 38 38 40 44 46 49 51 52 56 58 59 58 57 55 52 49 48 46 44 46 43 38 38 37 35 35 35 36 36 36 37 39 43 46 49 53 55 56 58 58 57 59 60 61 62 62 61
78 77 81 88 84 72 66 64 60 56 52 43 38 39 40 39 40 46 59 65 69 70 60 51 56 59 54 54 53 53 57 63 64 60 51 47 47 48 48 45 43 45 48 48 50 53 54 55 57 60 60 60 60 56 51 49 46 45 45 42 38 37 36 34 35 35 36 37 37 38 40 43 47 50 54 57 58 59 59 59 59 60 61 62 63 62
78 77 79 83 84 78 71 70 65 58 56 53 47 42 39 40 44 51 59 62 64 65 58 53 60 63 58 56 54 53 56 61 63 60 54 52 53 55 57 55 51 51 52 52 53 55 56 55 56 59 60 61 62 58 51 48 46 46 46 43 39 37 35 34 35 34 36 37 37 39 41 43 46 50 54 57 59 59 60 60 60 60 61 62 63 63
80 82 79 78 82 82 80 83 80 70 67 66 60 51 43 43 51 57 60 61 62 61 56 54 56 54 54 59 59 54 52 56 58 54 50 54 59 62 65 63 60 59 59 59 58 56 57 58 58 61 61 61 61 56 48 45 46 47 47 44 40 37 35 34 33 34 36 37 38 40 41 43 45 49 54 58 59 60 61 61 61 62 63 62 62 62
82 84 80 78 82 81 78 83 84 79 75 72 67 61 51 48 55 58 58 59 60 58 56 57 55 49 50 58 62 56 50 53 57 56 53 54 56 60 66 65 61 60 60 59 58 59 61 62 61 62 62 61 61 56 48 45 47 49 48 44 39 36 34 34 33 34 36 37 38 40 41 42 45 50 55 58 60 61 62 62 62 62 62 61 60 60
84 87 83 79 78 76 73 76 78 77 76 73 68 63 57 54 57 58 58 58 58 58 59 60 58 57 59 60 58 56 54 54 58 62 63 62 56 54 61 63 58 56 56 57 58 62 64 64 62 62 60 58 56 51 47 46 47 46 42 40 38 35 34 34 34 35 37 37 39 39 40 42 46 51 56 59 61 62 63 64 63 62 61 60 60 59
83 87 86 77 73 75 75 74 74 77 79 76 69 61 55 54 55 55 56 58 57 57 58 59 60 65 68 64 56 56 56 53 52 58 66 71 67 60 61 61 58 56 59 61 62 65 66 64 61 60 57 56 53 49 48 48 46 44 43 41 38 36 35 34 35 36 37 38 39 39 40 43 47 53 57 60 62 63 64 65 64 62 62 61 60 59
80 85 85 78 73 75 75 74 79 83 79 72 67 60 56 55 52 49 52 55 54 54 56 58 61 64 65 61 55 54 55 54 54 58 63 68 69 70 71 69 63 60 63 64 65 67 67 65 63 60 59 58 56 53 51 49 46 45 46 45 41 36 35 34 36 37 37 38 39 40 41 44 49 54 58 61 62 63 65 66 65 64 63 62 61 60
77 84 86 84 79 76 75 78 87 87 75 67 66 63 61 58 56 55 58 58 57 57 58 57 59 62 61 61 60 60 60 63 66 65 64 63 64 69 75 76 70 65 64 63 64 66 67 65 62 58 57 57 56 56 53 49 47 48 49 48 44 39 35 36 37 37 37 39 40 41 42 46 51 56 59 61 63 64 65 66 65 65 64 63 62 61
74 81 86 85 81 80 81 81 83 82 76 70 67 67 69 68 65 66 68 65 63 64 65 62 61 63 61 61 64 65 64 66 68 65 62 63 63 65 71 75 69 64 64 63 62 65 66 66 65 63 61 57 54 54 53 51 51 51 50 49 46 39 36 37 37 37 38 39 40 42 44 47 52 56 59 62 64 65 66 66 66 65 64 64 62 61
74 79 82 81 81 86 91 88 84 83 83 77 71 72 77 74 70 72 72 69 68 70 70 69 69 68 65 63 65 65 64 65 66 62 57 59 62 62 66 69 65 63 66 67 67 70 72 72 72 73 72 67 60 56 54 52 51 50 50 49 44 40 38 37 37 37 38 40 41 42 44 47 52 56 59 63 66 68 68 67 66 67 66 64 63 62
76 78 80 82 85 90 93 95 91 86 83 80 75 78 82 78 74 74 70 66 68 71 69 69 70 69 68 68 67 66 64 64 62 57 51 54 62 62 58 59 61 63 66 68 69 70 71 69 68 70 72 71 67 60 54 51 50 50 50 47 42 39 37 37 36 37 39 41 43 43 44 48 53 55 56 60 66 69 69 68 67 68 67 66 65 65
82 83 84 87 90 91 91 95 93 84 80 80 78 78 82 82 77 73 69 66 67 71 70 69 69 67 66 69 69 66 64 61 56 51 47 50 59 60 53 52 56 58 59 63 67 67 65 61 60 62 65 65 62 57 53 51 51 50 48 43 38 37 37 36 37 39 42 44 44 45 45 48 51 53 56 61 66 69 70 70 69 68 67 66 67 68
89 91 91 90 93 95 94 94 91 84 80 81 81 78 77 78 73 70 71 70 70 71 70 68 71 70 67 68 70 67 64 60 53 48 46 46 51 56 55 52 52 52 51 54 59 64 65 62 57 59 61 61 58 55 53 51 50 48 43 38 36 37 37 37 39 42 45 46 45 47 50 51 53 56 61 66 67 68 70 72 70 67 67 68 70 71
94 96 95 93 96 98 98 95 89 83 79 79 81 77 74 77 79 75 71 69 68 68 67 67 70 73 71 70 70 69 68 65 56 49 48 48 50 54 56 53 51 52 52 52 54 58 62 63 61 62 62 60 57 55 53 50 45 42 38 34 35 37 37 39 42 46 46 46 45 48 53 58 60 63 66 68 67 66 69 71 69 67 67 68 70 70
94 97 97 96 97 97 97 97 92 87 83 81 82 79 76 82 89 84 75 70 68 67 66 65 65 67 68 68 66 65 66 65 59 53 52 51 50 51 54 55 55 54 52 51 52 54 58 61 63 65 62 57 55 54 52 49 45 40 35 33 34 37 39 42 46 48 46 46 47 50 56 62 67 67 66 67 67 67 69 70 69 68 69 69 68 68
91 96 98 98 96 96 98 99 95 92 88 86 88 87 83 86 89 87 82 78 75 70 66 63 61 60 63 64 60 59 60 59 55 52 51 51 50 51 52 53 54 54 53 52 51 51 54 58 60 61 59 55 54 53 51 49 46 42 38 35 36 37 41 45 48 49 48 48 52 56 59 63 67 68 65 65 66 66 67 69 70 71 71 69 68 68
87 91 96 97 96 96 97 94 92 90 88 87 89 87 85 84 84 84 84 81 76 69 63 60 57 57 59 60 57 55 56 56 53 49 48 48 50 52 51 50 52 54 55 59 60 57 55 57 58 58 58 56 55 55 54 51 47 46 43 39 38 40 45 48 49 50 51 54 57 60 62 64 68 70 67 65 65 65 68 71 72 73 71 68 67 67
81 87 93 96 95 93 91 89 90 92 90 89 90 87 83 81 80 81 83 81 74 68 63 60 56 54 56 58 56 52 52 52 50 47 45 45 47 49 50 50 52 52 54 63 72 69 62 61 62 61 60 59 58 58 56 52 50 50 48 43 42 46 48 50 51 53 57 61 62 62 64 68 72 71 68 68 68 67 68 69 69 69 67 65 64 62
76 84 90 96 96 93 90 88 90 92 90 90 91 89 84 82 80 79 81 79 74 71 68 64 60 57 55 56 56 53 52 51 49 45 42 42 45 49 51 51 50 49 51 63 76 77 70 67 66 64 62 61 60 59 58 59 59 58 55 51 50 51 50 49 52 59 66 66 64 64 66 69 71 69 68 69 68 66 65 66 65 64 62 59 58 57
69 78 87 94 94 93 91 87 86 89 89 89 91 90 86 84 82 78 77 76 74 71 72 73 72 67 60 57 56 56 55 54 50 45 42 43 44 47 50 52 51 49 51 60 73 80 78 74 71 68 65 64 62 62 62 66 67 64 58 54 52 51 51 51 53 61 67 66 65 66 67 68 68 67 66 66 65 64 64 63 62 60 58 56 57 58
64 73 82 89 90 89 87 83 82 86 87 88 91 91 88 86 82 77 75 75 75 73 73 77 80 75 68 65 63 60 57 54 49 46 45 46 45 45 46 48 49 52 56 60 67 78 83 79 73 71 70 69 68 67 67 69 70 66 59 54 50 50 53 56 58 62 65 65 66 67 66 65 64 63 62 62 62 61 60 58 57 57 57 58 59 59
62 71 79 84 86 85 83 78 78 83 87 88 88 89 87 85 82 77 75 76 76 74 73 74 76 74 73 73 73 71 64 55 49 46 45 45 47 48 48 46 46 50 55 60 66 76 84 83 78 76 77 76 74 74 74 75 74 67 59 55 54 54 57 61 64 66 66 65 65 65 62 61 60 59 58 58 56 56 55 55 55 56 57 59 59 59
54 63 72 77 79 79 78 74 74 79 85 86 84 85 87 87 84 81 79 78 75 71 68 70 75 81 83 82 80 77 69 59 54 51 50 50 51 50 47 46 47 48 51 61 72 80 83 84 82 81 80 79 79 80 81 80 77 70 63 61 60 60 62 64 65 66 66 64 62 59 56 56 57 56 55 54 53 53 53 54 55 56 57 59 60 61